Find Starlink 33593

NORAD ID: 62780 Int'l Des: 2025-015 Owner: SPXS Country: US Constellation: starlink operational
LEOCIRCULAR

Live Position

Loading 3D Globe...

About Starlink 33593

Description loading...

Upcoming Passes

Passes for default location (London). Set your location on the main map for personalized predictions.

Altitude History

Loading altitude history...

Two-Line Element Set

1 62780U 25015Y 26105.39309970 .00005240 00000-0 18891-3 0 9991
2 62780 53.1613 151.7496 0001752 92.0872 268.0329 15.30202619 70107
Epoch: Apr 15, 2026 • Age: 11 hours

Current Status

Altitude 478.7 km
Velocity 7.63 km/s
Sub-Earth Point 44.13°N, 41.81°E
Launch Date Jan 21, 2025
Age 1.2 years
Type internet

Technical Details

Classification Payload
Mass 575.00 kg
Dry Mass 530.00 kg
Total Mass 575.00 kg
Length 0.30 m
Diameter 4.10 m
Span 29.00 m
Shape Box + pan
Manufacturer SPXS
Bus Type Starlink V2MO
Phase Status In Orbit
Owner/State SPXS/US

Most Searched